Preview of NWS' New Version of Forecast
This preview is not operational and should not be used for support decisions.

Regional Weather Roundup (RWR)

Issued by National Weather Service (NWS)

                            
000
ASPQ40 PGUM 200110
RWRPQ 
WEATHER ROUNDUP FOR THE MARIANAS AND MICRONESIA
NATIONAL WEATHER SERVICE TIYAN GU
1100 AM CHST WED FEB 20 2019

GUZ001>004-200200-
MARIANA ISLANDS-
  
CITY           SKY/WX    TMP DP  RH WIND       PRES   REMARKS
GUAM AIRPORT   LGT RAIN  82  77  83 NE20      30.02F HX  91           
ANDERSEN AFB   PTSUNNY   81  73  78 NE21G28   30.05R                  
ROTA AIRPORT   PTSUNNY   79  70  73 NE15      30.01F                  
TINIAN AP      LGT RAIN N/A N/A N/A E14       30.02F                  
SAIPAN AP      CLOUDY    82  70  65 NE23      30.03F                  

$$

PMZ161-200200-
REPUBLIC OF PALAU-
  
CITY           SKY/WX    TMP DP  RH WIND       PRES   REMARKS
KOROR AP       CLOUDY    77  75  94 NE8G16    30.00S                  
KOROR WSO      NOT AVBL                                               

$$

PMZ171>174-200200-
FEDERATED STATES OF MICRONESIA-
  
CITY           SKY/WX    TMP DP  RH WIND       PRES   REMARKS
YAP AIRPORT    PTSUNNY   84  75  74 NE14      29.99F HX  92           
CHUUK AP       CLOUDY    81  75  83 N14G28    29.78F                  
POHNPEI AP     CLOUDY    84  79  84 SE7       29.77F HX  96           
POHNPEI WSO    CLOUDY    86  77  74 SE9       29.81  HX  97           
KOSRAE AP      NOT AVBL                                               

$$

PMZ181-200200-
REPUBLIC OF THE MARSHALL ISLANDS-
  
CITY           SKY/WX    TMP DP  RH WIND       PRES   REMARKS
KWAJALEIN AP   MOSUNNY   86  75  70 E22G29    29.85F HX  95           
MAJURO AP      NOT AVBL                                               
MAJURO WSO     MOSUNNY   86  72  62 E26       29.84F HX  92           

$$